Find RCM 2

NORAD ID: 44323 Int'l Des: 2019-033 Owner: CSA Country: CA operational
LEOCIRCULARRETROGRADESSO

Aktuelle Ansicht

3D-Globus wird geladen...

Über RCM 2

Beschreibung wird geladen...

Nächste Überflüge

Passes for default location (London). Set your location on the main map for personalized predictions.

Höhenverlauf

Loading altitude history...

Zweizeiliger Elementsatz

1 44323U 19033B 26146.57059633 .00000154 00000-0 20404-4 0 9993
2 44323 97.7594 154.4145 0001505 91.8380 268.3011 14.92588846378872
Epoch: 26. Mai 2026 • Age: 7 hours

Aktueller Status

Höhe 595.2 km
Geschwindigkeit 7.57 km/s
Subsatellitenpunkt 41.45°N, 41.35°W
Startdatum 12. Juni 2019
Alter 6.9 years
Typ other

Technische Details

Klassifizierung Payload
Masse 1450.00 kg
Trockenmasse 1400.00 kg
Gesamtmasse 1450.00 kg
Länge 5.00 m
Durchmesser 1.40 m
Spannweite 7.00 m
Form Box+2 panels
Hersteller BALM/MAXAR
Bus-Typ MAC-200
Phasenstatus In Orbit
Besitzer/Staat CSA/CA

Most Searched